Location: Altenst�hlen
(53.5567°N, 8.9425°E)
Time: 19:18:59
(UTC+00:00)

Lacrosse 5 - Pass Details

Date: 23 October 2019
Orbit: 715 x 724 km, 57.0° (Epoch: 27 October)

Event Time Altitude Azimuth Distance (km) Brightness Sun altitude
Rises 18:13:12 0° 294° (WNW) 3,125 6.5 -18.8°
Reaches altitude 10° 18:16:05 10° 279° (W) 2,201 5.6 -19.2°
Maximum altitude 18:19:46 21° 232° (SW) 1,592 4.1 -19.8°
Drops below altitude 10° 18:23:27 10° 185° (S) 2,191 4.3 -20.3°
Enters shadow 18:25:45 - 171° (S) 2,911 4.8 -20.6°
